TimeCDT,TemperatureF,Dew PointF,Humidity,Sea Level PressureIn,VisibilityMPH,Wind Direction,Wind SpeedMPH,Gust SpeedMPH,PrecipitationIn,Events,Conditions,WindDirDegrees,DateUTC
12:54 AM,69.1,64.9,87,29.93,10.0,SSE,9.2,-,N/A,,Clear,150,2013-10-02 05:54:00
1:54 AM,68.0,64.9,90,29.93,10.0,SE,8.1,-,N/A,,Clear,140,2013-10-02 06:54:00
2:54 AM,66.9,64.9,93,29.93,10.0,SSE,6.9,-,N/A,,Clear,150,2013-10-02 07:54:00
3:54 AM,66.0,64.9,96,29.92,8.0,SE,5.8,-,N/A,,Clear,140,2013-10-02 08:54:00
4:54 AM,66.9,66.0,97,29.92,6.0,SSE,8.1,-,N/A,,Clear,150,2013-10-02 09:54:00
5:54 AM,66.9,66.9,100,29.92,5.0,SSE,8.1,-,N/A,,Clear,150,2013-10-02 10:54:00
6:12 AM,68.0,68.0,100,29.96,5.0,SSE,10.4,-,N/A,,Scattered Clouds,150,2013-10-02 11:12:00
6:19 AM,68.0,68.0,100,29.96,5.0,SSE,11.5,-,N/A,,Mostly Cloudy,150,2013-10-02 11:19:00
6:54 AM,69.1,69.1,100,29.94,4.0,SSE,11.5,-,N/A,,Overcast,160,2013-10-02 11:54:00
7:54 AM,70.0,70.0,100,29.95,3.0,South,10.4,-,N/A,,Overcast,170,2013-10-02 12:54:00
8:54 AM,71.1,71.1,100,29.97,4.0,SSE,10.4,-,N/A,,Overcast,150,2013-10-02 13:54:00
9:05 AM,71.6,71.6,100,30.00,5.0,SE,10.4,-,N/A,,Overcast,140,2013-10-02 14:05:00
9:54 AM,72.0,71.1,97,29.97,6.0,SSE,15.0,-,N/A,,Overcast,150,2013-10-02 14:54:00
10:18 AM,73.4,71.6,94,29.99,7.0,SSE,12.7,-,N/A,,Overcast,150,2013-10-02 15:18:00
10:54 AM,77.0,71.1,82,29.96,9.0,SSE,17.3,-,N/A,,Mostly Cloudy,150,2013-10-02 15:54:00
11:05 AM,77.0,69.8,78,29.98,9.0,SSE,15.0,-,N/A,,Mostly Cloudy,150,2013-10-02 16:05:00
11:25 AM,78.8,71.6,78,29.98,10.0,SSE,16.1,20.7,N/A,,Scattered Clouds,160,2013-10-02 16:25:00
11:39 AM,77.0,69.8,78,29.98,10.0,SSE,13.8,-,N/A,,Mostly Cloudy,160,2013-10-02 16:39:00
11:54 AM,79.0,70.0,74,29.94,10.0,SSE,19.6,24.2,N/A,,Mostly Cloudy,160,2013-10-02 16:54:00
12:38 PM,80.6,69.8,70,29.96,10.0,South,17.3,24.2,N/A,,Mostly Cloudy,170,2013-10-02 17:38:00
12:54 PM,80.1,70.0,71,29.93,10.0,South,16.1,23.0,N/A,,Mostly Cloudy,170,2013-10-02 17:54:00
1:54 PM,82.0,70.0,67,29.90,10.0,SSE,16.1,20.7,N/A,,Mostly Cloudy,150,2013-10-02 18:54:00
2:54 PM,82.9,70.0,65,29.86,10.0,South,13.8,19.6,N/A,,Scattered Clouds,180,2013-10-02 19:54:00
3:54 PM,84.0,69.1,61,29.85,10.0,SSE,13.8,-,N/A,,Partly Cloudy,160,2013-10-02 20:54:00
4:54 PM,82.0,68.0,62,29.83,10.0,SSE,16.1,-,N/A,,Partly Cloudy,150,2013-10-02 21:54:00
5:54 PM,81.0,68.0,65,29.83,10.0,SSE,12.7,-,N/A,,Partly Cloudy,150,2013-10-02 22:54:00
6:54 PM,78.1,68.0,71,29.83,10.0,SSE,8.1,-,N/A,,Clear,150,2013-10-02 23:54:00
7:54 PM,75.9,66.9,74,29.84,10.0,SE,8.1,-,N/A,,Clear,130,2013-10-03 00:54:00
8:54 PM,75.0,66.9,76,29.86,10.0,SE,8.1,-,N/A,,Clear,130,2013-10-03 01:54:00
9:54 PM,73.9,66.9,79,29.86,10.0,SSE,8.1,-,N/A,,Clear,150,2013-10-03 02:54:00
10:54 PM,73.0,68.0,84,29.86,10.0,SSE,11.5,-,N/A,,Clear,150,2013-10-03 03:54:00
11:54 PM,73.0,68.0,84,29.85,10.0,SSE,12.7,-,N/A,,Mostly Cloudy,150,2013-10-03 04:54:00